Belize, Belize

2:18 PM CST on November 20, 2017 (GMT -0600)
Philip S W Goldson International

Weather History for MZBZ - July, 2011

Change the Weather History Date:

Saturday, July 30, 2011

  Actual Average Record
Temperature  
Mean Temperature 82 °F -  
Max Temperature 88 °F 89 °F 90 °F (2015)
Min Temperature 75 °F 76 °F 73 °F (2001)
Cooling Degree Days 16    
Growing Degree Days 32 (Base 50)    
Moisture  
Dew Point 77 °F    
Average Humidity 81    
Maximum Humidity 94    
Minimum Humidity 66    
Precipitation  
Precipitation 0.55 in 0.25 in - ()
Sea Level Pressure  
Sea Level Pressure 29.88 in    
Wind  
Wind Speed 5 mph ()    
Max Wind Speed 10 mph    
Max Gust Speed -    
Visibility 7.0 miles    
Events Rain , Thunderstorm    
Averages and records for this station are not official NWS values.
T = Trace of Precipitation, MM = Missing Value Source: Averaged Metar Reports

Daily Weather History Graph

Daily Weather History Graph

Search for Another Location

Airport or City:

Trip Planner

Search our weather history database for the weather conditions in past years. The results will help you decide how hot, cold, wet, or windy it might be!

Date:

Astronomy

Jul. 30, 2011 Rise Set
Actual Time 5:31 AM CST 6:27 PM CST
Civil Twilight 5:08 AM CST 6:50 PM CST
Nautical Twilight 4:41 AM CST 7:17 PM CST
Astronomical Twilight 4:13 AM CST 7:45 PM CST
Moon 5:19 AM CST (7/30) 6:25 PM CST (7/30)
Length of Visible Light 13h 42m
Length of Day
12h 55m
Waning Crescent, 0% of the Moon is Illuminated
Jul 30
Waning Crescent
Jul 30
New
Aug 6
First Quarter
Aug 13
Full
Aug 21
Last Quarter

Hourly Weather History & Observations

Time (CST) Temp. Heat Index Dew Point Humidity Pressure Visibility Wind Dir Wind Speed Gust Speed Precip Events Conditions
12:00 AM 83 °F - 76 °F 73% 29.92 in 12 mi East 4.6 mph - -  
12:00 AM 82.4 °F 89.5 °F 75.2 °F 79% 29.92 in 6.2 mi East 4.6 mph - N/A   Scattered Clouds
3:00 AM 83 °F - 77 °F 76% 29.86 in 12 mi ENE 3.5 mph - -   Scattered Clouds
3:00 AM 82.4 °F 90.9 °F 77.0 °F 84% 29.86 in 6.2 mi ENE 3.5 mph - N/A   Mostly Cloudy
6:00 AM 79 °F - 78 °F 94% 29.89 in 1 mi WSW 10.4 mph - - Rain , Thunderstorm Thunderstorms and Rain
6:00 AM 78.8 °F - 77.0 °F 94% 29.89 in 1.2 mi WSW 10.4 mph - N/A Rain , Thunderstorm Thunderstorms and Rain
7:00 AM 75.2 °F - 73.4 °F 94% 29.89 in 6.2 mi SSW 3.5 mph - N/A Thunderstorm Thunderstorm
8:00 AM 77.0 °F - 75.2 °F 94% 29.92 in 6.2 mi NW 5.8 mph - N/A   Mostly Cloudy
9:00 AM 79 °F - 77 °F 92% 29.94 in 12 mi WSW 3.5 mph - -   Partly Cloudy
9:00 AM 78.8 °F - 77.0 °F 94% 29.94 in 6.2 mi Calm Calm - N/A   Mostly Cloudy
10:00 AM 80.6 °F 86.2 °F 75.2 °F 84% 29.93 in 6.2 mi NNE 3.5 mph - N/A   Mostly Cloudy
11:00 AM 86.0 °F 96.9 °F 77.0 °F 74% 29.92 in 6.2 mi ENE 10.4 mph - N/A   Mostly Cloudy
12:00 PM 86.0 °F 96.9 °F 77.0 °F 74% 29.92 in 6.2 mi East 8.1 mph - N/A   Mostly Cloudy
1:00 PM 84.2 °F 94.1 °F 77.0 °F 79% 29.90 in 6.2 mi East 6.9 mph - N/A   Mostly Cloudy
2:00 PM 87.8 °F 99.7 °F 77.0 °F 70% 29.86 in 6.2 mi East 9.2 mph - N/A   Mostly Cloudy
3:00 PM 88 °F - 78 °F 66% 29.85 in 12 mi ENE 9.2 mph - -  
3:00 PM 87.8 °F 102.5 °F 78.8 °F 75% 29.84 in 6.2 mi ENE 9.2 mph - N/A   Mostly Cloudy
4:00 PM 87.8 °F 99.7 °F 77.0 °F 70% 29.82 in 6.2 mi ENE 6.9 mph - N/A   Mostly Cloudy
5:00 PM 86.0 °F 96.9 °F 77.0 °F 74% 29.83 in 6.2 mi ENE 6.9 mph - N/A   Mostly Cloudy
6:00 PM 85 °F - 76 °F 69% 29.84 in 12 mi NE 4.6 mph - -  
6:00 PM 86.0 °F 96.9 °F 77.0 °F 74% 29.83 in 6.2 mi NE 4.6 mph - N/A   Mostly Cloudy
9:00 PM 80.6 °F 87.1 °F 77.0 °F 89% 29.89 in 5.6 mi NW 10.4 mph - N/A Rain Rain Showers